| time (UTC) | temp F | wind direction | speed MPH | gust MPH | rain 1hr in | rain 24hr in | rain mn in | humidity % | barometer mb |
| 20260505023015 | 46 | 335 | 6.0 | 10.0 | 0.00 | 0.00 | 0.00 | 49 | 1007.6 |
| 20260505022509 | 46 | 338 | 6.0 | 9.0 | 0.00 | 0.00 | 0.00 | 49 | 1008.9 |
| 20260505022008 | 46 | 312 | 3.0 | 10.0 | 0.00 | 0.00 | 0.00 | 49 | 1008.8 |
| 20260505021531 | 47 | 5 | 5.0 | 10.0 | 0.00 | 0.00 | 0.00 | 49 | 1008.7 |
| 20260505021513 | 47 | 3 | 5.0 | 10.0 | 0.00 | 0.00 | 0.00 | 49 | 1007.2 |
| 20260505021002 | 47 | 309 | 4.0 | 10.0 | 0.00 | 0.00 | 0.00 | 49 | 1008.6 |
| 20260505020504 | 47 | 1 | 5.0 | 10.0 | 0.00 | 0.00 | 0.00 | 48 | 1008.5 |
| 20260505020018 | 47 | 317 | 4.0 | 8.0 | 0.00 | 0.00 | 0.00 | 48 | 1008.6 |
| 20260505020013 | 47 | 295 | 3.0 | 8.0 | 0.00 | 0.00 | 0.00 | 48 | 1007.0 |
| 20260505015507 | 47 | 341 | 3.0 | 8.0 | 0.00 | 0.00 | 0.00 | 47 | 1008.5 |
| 20260505015007 | 48 | 320 | 5.0 | 11.0 | 0.00 | 0.00 | 0.00 | 47 | 1008.3 |
| 20260505014524 | 48 | 316 | 6.0 | 11.0 | 0.00 | 0.00 | 0.00 | 46 | 1008.3 |
| 20260505014508 | 48 | 316 | 5.0 | 11.0 | 0.00 | 0.00 | 0.00 | 47 | 1006.9 |
| 20260505014006 | 48 | 306 | 6.0 | 11.0 | 0.00 | 0.00 | 0.00 | 46 | 1008.2 |
| 20260505013509 | 48 | 316 | 6.0 | 13.0 | 0.00 | 0.00 | 0.00 | 46 | 1008.1 |
| 20260505013023 | 48 | 10 | 7.0 | 15.0 | 0.00 | 0.00 | 0.00 | 45 | 1008.0 |
| 20260505013006 | 48 | 22 | 6.0 | 14.0 | 0.00 | 0.00 | 0.00 | 45 | 1006.7 |
| 20260505012507 | 49 | 13 | 7.0 | 17.0 | 0.00 | 0.00 | 0.00 | 45 | 1008.0 |
| 20260505012010 | 49 | 309 | 9.0 | 19.0 | 0.00 | 0.00 | 0.00 | 43 | 1007.9 |
| 20260505011524 | 49 | 318 | 11.0 | 19.0 | 0.00 | 0.00 | 0.00 | 43 | 1007.8 |
| 20260505011505 | 49 | 340 | 11.0 | 19.0 | 0.00 | 0.00 | 0.00 | 43 | 1006.4 |
| 20260505011010 | 49 | 311 | 11.0 | 17.0 | 0.00 | 0.00 | 0.00 | 43 | 1007.8 |
| 20260505010508 | 49 | 312 | 10.0 | 17.0 | 0.00 | 0.00 | 0.00 | 42 | 1007.8 |
| 20260505010029 | 49 | 322 | 10.0 | 18.0 | 0.00 | 0.00 | 0.00 | 42 | 1007.7 |
| 20260505010004 | 49 | 322 | 10.0 | 18.0 | 0.00 | 0.00 | 0.00 | 43 | 1006.2 |
| 20260505005507 | 49 | 303 | 10.0 | 18.0 | 0.00 | 0.00 | 0.00 | 41 | 1007.7 |
| 20260505005004 | 50 | 300 | 9.0 | 19.0 | 0.00 | 0.00 | 0.00 | 41 | 1007.7 |
| 20260505004530 | 50 | 314 | 9.0 | 19.0 | 0.00 | 0.00 | 0.00 | 41 | 1007.7 |
| 20260505004502 | 50 | 314 | 9.0 | 19.0 | 0.00 | 0.00 | 0.00 | 42 | 1006.0 |
| 20260505004006 | 50 | 318 | 8.0 | 15.0 | 0.00 | 0.00 | 0.00 | 42 | 1007.6 |
| 20260505003509 | 50 | 309 | 10.0 | 17.0 | 0.00 | 0.00 | 0.00 | 41 | 1007.6 |
| 20260505003100 | 50 | 322 | 10.0 | 17.0 | 0.00 | 0.00 | 0.00 | 42 | 1006.0 |
| 20260505003022 | 50 | 327 | 11.0 | 17.0 | 0.00 | 0.00 | 0.00 | 41 | 1007.6 |
| 20260505002508 | 50 | 319 | 10.0 | 17.0 | 0.00 | 0.00 | 0.00 | 40 | 1007.6 |
| 20260505002007 | 50 | 316 | 10.0 | 18.0 | 0.00 | 0.00 | 0.00 | 39 | 1007.6 |
| 20260505001601 | 50 | 316 | 10.0 | 21.0 | 0.00 | 0.00 | 0.00 | 40 | 1006.0 |
| 20260505001527 | 50 | 359 | 12.0 | 21.0 | 0.00 | 0.00 | 0.00 | 39 | 1007.6 |
| 20260505001010 | 50 | 292 | 12.0 | 21.0 | 0.00 | 0.00 | 0.00 | 38 | 1007.6 |
| 20260505000516 | 51 | 292 | 10.0 | 19.0 | 0.00 | 0.00 | 0.00 | 38 | 1007.6 |
| 20260505000108 | 51 | 354 | 8.0 | 19.0 | 0.00 | 0.00 | 0.00 | 39 | 1005.9 |
| 20260505000033 | 51 | 336 | 9.0 | 21.0 | 0.00 | 0.00 | 0.00 | 39 | 1007.6 |
| 20260504235507 | 51 | 347 | 12.0 | 25.0 | 0.00 | 0.00 | 0.00 | 37 | 1007.7 |
| 20260504235003 | 51 | 308 | 13.0 | 25.0 | 0.00 | 0.00 | 0.00 | 37 | 1007.6 |
| 20260504234611 | 52 | 300 | 13.0 | 25.0 | 0.00 | 0.00 | 0.00 | 36 | 1005.8 |
| 20260504234518 | 52 | 320 | 10.0 | 20.0 | 0.00 | 0.00 | 0.00 | 36 | 1007.5 |
| 20260504234007 | 52 | 293 | 12.0 | 25.0 | 0.00 | 0.00 | 0.00 | 36 | 1007.5 |
| 20260504233507 | 52 | 313 | 14.0 | 25.0 | 0.00 | 0.00 | 0.00 | 34 | 1007.5 |
| 20260504233058 | 53 | 290 | 13.0 | 24.0 | 0.00 | 0.00 | 0.00 | 35 | 1005.8 |
| 20260504233022 | 53 | 292 | 12.0 | 24.0 | 0.00 | 0.00 | 0.00 | 35 | 1007.5 |
| 20260504232507 | 53 | 343 | 17.0 | 24.0 | 0.00 | 0.00 | 0.00 | 34 | 1007.5 |
| 20260504232011 | 52 | 300 | 13.0 | 20.0 | 0.00 | 0.00 | 0.00 | 35 | 1007.4 |
| 20260504231556 | 52 | 312 | 13.0 | 22.0 | 0.00 | 0.00 | 0.00 | 36 | 1005.7 |
| 20260504231521 | 52 | 321 | 13.0 | 22.0 | 0.00 | 0.00 | 0.00 | 36 | 1007.3 |
| 20260504231010 | 53 | 296 | 10.0 | 22.0 | 0.00 | 0.00 | 0.00 | 36 | 1007.3 |
| 20260504230506 | 53 | 294 | 13.0 | 23.0 | 0.00 | 0.00 | 0.00 | 35 | 1007.3 |
| 20260504230055 | 53 | 303 | 11.0 | 23.0 | 0.00 | 0.00 | 0.00 | 36 | 1005.6 |
| 20260504230025 | 53 | 316 | 14.0 | 23.0 | 0.00 | 0.00 | 0.00 | 35 | 1007.3 |
| 20260504225511 | 52 | 325 | 16.0 | 23.0 | 0.00 | 0.00 | 0.00 | 34 | 1007.2 |
| 20260504225003 | 52 | 297 | 11.0 | 26.0 | 0.00 | 0.00 | 0.00 | 35 | 1007.1 |
| 20260504224555 | 53 | 305 | 16.0 | 26.0 | 0.00 | 0.00 | 0.00 | 34 | 1005.5 |
| 20260504224510 | 53 | 317 | 19.0 | 26.0 | 0.00 | 0.00 | 0.00 | 33 | 1007.0 |
| 20260504224004 | 53 | 294 | 10.0 | 22.0 | 0.00 | 0.00 | 0.00 | 34 | 1007.0 |
| 20260504223507 | 53 | 307 | 12.0 | 22.0 | 0.00 | 0.00 | 0.00 | 35 | 1007.0 |
| 20260504223056 | 52 | 352 | 12.0 | 22.0 | 0.00 | 0.00 | 0.00 | 35 | 1005.3 |
| 20260504223019 | 52 | 287 | 15.0 | 22.0 | 0.00 | 0.00 | 0.00 | 34 | 1007.0 |
| 20260504222509 | 52 | 347 | 11.0 | 24.0 | 0.00 | 0.00 | 0.00 | 35 | 1007.1 |
| 20260504222008 | 52 | 318 | 11.0 | 24.0 | 0.00 | 0.00 | 0.00 | 36 | 1007.0 |
| 20260504221552 | 52 | 316 | 15.0 | 24.0 | 0.00 | 0.00 | 0.00 | 34 | 1005.2 |
| 20260504221527 | 53 | 315 | 13.0 | 23.0 | 0.00 | 0.00 | 0.00 | 33 | 1006.8 |
| 20260504221009 | 53 | 300 | 13.0 | 23.0 | 0.00 | 0.00 | 0.00 | 33 | 1006.8 |
| 20260504220510 | 52 | 290 | 13.0 | 20.0 | 0.00 | 0.00 | 0.00 | 34 | 1006.8 |
| 20260504220058 | 52 | 302 | 13.0 | 21.0 | 0.00 | 0.00 | 0.00 | 35 | 1005.2 |
| 20260504220024 | 52 | 339 | 13.0 | 21.0 | 0.00 | 0.00 | 0.00 | 35 | 1006.9 |
| 20260504215507 | 52 | 317 | 12.0 | 21.0 | 0.00 | 0.00 | 0.00 | 35 | 1006.8 |
| 20260504215013 | 52 | 304 | 11.0 | 22.0 | 0.00 | 0.00 | 0.00 | 34 | 1006.9 |
| 20260504214550 | 52 | 304 | 15.0 | 22.0 | 0.00 | 0.00 | 0.00 | 34 | 1005.1 |
| 20260504214526 | 52 | 311 | 16.0 | 22.0 | 0.00 | 0.00 | 0.00 | 33 | 1006.9 |
| 20260504214009 | 53 | 305 | 11.0 | 23.0 | 0.00 | 0.00 | 0.00 | 33 | 1006.9 |
| 20260504213504 | 53 | 293 | 13.0 | 24.0 | 0.00 | 0.00 | 0.00 | 33 | 1006.7 |
| 20260504213107 | 53 | 312 | 14.0 | 24.0 | 0.00 | 0.00 | 0.00 | 35 | 1005.1 |
| 20260504213029 | 52 | 319 | 16.0 | 24.0 | 0.00 | 0.00 | 0.00 | 34 | 1006.9 |
| 20260504212507 | 52 | 297 | 13.0 | 23.0 | 0.00 | 0.00 | 0.00 | 34 | 1006.9 |
| 20260504212005 | 52 | 312 | 15.0 | 24.0 | 0.00 | 0.00 | 0.00 | 35 | 1007.0 |
| 20260504211548 | 53 | 291 | 14.0 | 24.0 | 0.00 | 0.00 | 0.00 | 35 | 1005.2 |
| 20260504211518 | 53 | 327 | 15.0 | 24.0 | 0.00 | 0.00 | 0.00 | 35 | 1007.0 |
| 20260504211007 | 52 | 302 | 13.0 | 24.0 | 0.00 | 0.00 | 0.00 | 35 | 1007.1 |
| 20260504210511 | 52 | 323 | 12.0 | 22.0 | 0.00 | 0.00 | 0.00 | 35 | 1007.1 |
| 20260504210048 | 52 | 293 | 12.0 | 23.0 | 0.00 | 0.00 | 0.00 | 36 | 1005.4 |
| 20260504210022 | 52 | 288 | 13.0 | 28.0 | 0.00 | 0.00 | 0.00 | 36 | 1007.2 |
| 20260504205507 | 52 | 295 | 12.0 | 28.0 | 0.00 | 0.00 | 0.00 | 35 | 1007.3 |
| 20260504205009 | 52 | 329 | 13.0 | 26.0 | 0.00 | 0.00 | 0.00 | 36 | 1007.2 |
| 20260504204555 | 51 | 319 | 18.0 | 26.0 | 0.00 | 0.00 | 0.00 | 35 | 1005.4 |
| 20260504204525 | 51 | 302 | 18.0 | 26.0 | 0.00 | 0.00 | 0.00 | 36 | 1007.3 |
| 20260504204010 | 52 | 323 | 13.0 | 26.0 | 0.00 | 0.00 | 0.00 | 36 | 1007.4 |
| 20260504203508 | 52 | 302 | 12.0 | 27.0 | 0.00 | 0.00 | 0.00 | 35 | 1007.4 |
| 20260504203048 | 51 | 300 | 11.0 | 27.0 | 0.00 | 0.00 | 0.00 | 37 | 1005.5 |
| 20260504203026 | 51 | 337 | 12.0 | 27.0 | 0.00 | 0.00 | 0.00 | 36 | 1007.4 |
| 20260504202508 | 51 | 312 | 12.0 | 22.0 | 0.00 | 0.00 | 0.00 | 37 | 1007.4 |
| 20260504202004 | 51 | 308 | 10.0 | 26.0 | 0.00 | 0.00 | 0.00 | 37 | 1007.6 |
| 20260504201545 | 51 | 297 | 8.0 | 26.0 | 0.00 | 0.00 | 0.00 | 38 | 1005.7 |
| 20260504201516 | 51 | 279 | 11.0 | 26.0 | 0.00 | 0.00 | 0.00 | 38 | 1007.6 |
| 20260504201008 | 51 | 324 | 12.0 | 22.0 | 0.00 | 0.00 | 0.00 | 37 | 1007.5 |
| 20260504200507 | 51 | 301 | 12.0 | 22.0 | 0.00 | 0.00 | 0.00 | 38 | 1007.5 |
| 20260504200045 | 50 | 309 | 13.0 | 22.0 | 0.00 | 0.00 | 0.00 | 38 | 1005.6 |
| 20260504200021 | 51 | 348 | 14.0 | 24.0 | 0.00 | 0.00 | 0.00 | 38 | 1007.4 |
| 20260504195507 | 51 | 333 | 12.0 | 25.0 | 0.00 | 0.00 | 0.00 | 37 | 1007.4 |
| 20260504195011 | 51 | 314 | 14.0 | 25.0 | 0.00 | 0.00 | 0.00 | 37 | 1007.4 |
| 20260504194543 | 52 | 314 | 10.0 | 22.0 | 0.00 | 0.00 | 0.00 | 38 | 1005.5 |
| 20260504194526 | 52 | 326 | 11.0 | 24.0 | 0.00 | 0.00 | 0.00 | 37 | 1007.4 |
| 20260504194007 | 51 | 285 | 16.0 | 25.0 | 0.00 | 0.00 | 0.00 | 36 | 1007.2 |
| 20260504193507 | 51 | 298 | 13.0 | 27.0 | 0.00 | 0.00 | 0.00 | 37 | 1007.1 |
| 20260504193054 | 51 | 335 | 18.0 | 27.0 | 0.00 | 0.00 | 0.00 | 38 | 1005.3 |
| 20260504193025 | 50 | 333 | 19.0 | 27.0 | 0.00 | 0.00 | 0.00 | 38 | 1007.4 |
| 20260504192510 | 52 | 307 | 17.0 | 26.0 | 0.00 | 0.00 | 0.00 | 36 | 1007.2 |
| 20260504192014 | 52 | 302 | 13.0 | 23.0 | 0.00 | 0.00 | 0.00 | 38 | 1007.1 |
| 20260504191540 | 51 | 305 | 10.0 | 26.0 | 0.00 | 0.00 | 0.00 | 40 | 1005.1 |
| 20260504191537 | 51 | 267 | 12.0 | 26.0 | 0.00 | 0.00 | 0.00 | 40 | 1007.2 |
| 20260504191009 | 50 | 325 | 13.0 | 26.0 | 0.00 | 0.00 | 0.00 | 38 | 1007.2 |
| 20260504190508 | 50 | 308 | 17.0 | 24.0 | 0.00 | 0.00 | 0.00 | 41 | 1007.3 |
| 20260504190042 | 50 | 295 | 12.0 | 24.0 | 0.00 | 0.00 | 0.00 | 41 | 1005.2 |
| 20260504190020 | 50 | 311 | 13.0 | 24.0 | 0.00 | 0.00 | 0.00 | 40 | 1007.3 |
| 20260504185507 | 50 | 294 | 15.0 | 24.0 | 0.00 | 0.00 | 0.00 | 41 | 1007.3 |
| 20260504185009 | 50 | 316 | 15.0 | 26.0 | 0.00 | 0.00 | 0.00 | 42 | 1007.3 |
| 20260504184542 | 49 | 321 | 16.0 | 26.0 | 0.00 | 0.00 | 0.00 | 45 | 1005.2 |
| 20260504184538 | 49 | 293 | 18.0 | 26.0 | 0.00 | 0.00 | 0.00 | 43 | 1007.3 |
| 20260504184013 | 49 | 293 | 14.0 | 24.0 | 0.00 | 0.00 | 0.00 | 43 | 1007.3 |
| 20260504183512 | 50 | 327 | 15.0 | 24.0 | 0.00 | 0.00 | 0.00 | 46 | 1007.3 |
| 20260504183044 | 49 | 311 | 15.0 | 25.0 | 0.00 | 0.00 | 0.00 | 47 | 1005.2 |
| 20260504183026 | 49 | 319 | 15.0 | 25.0 | 0.00 | 0.00 | 0.00 | 45 | 1007.2 |
| 20260504182512 | 49 | 344 | 15.0 | 25.0 | 0.00 | 0.00 | 0.00 | 47 | 1007.2 |
| 20260504182011 | 49 | 316 | 13.0 | 24.0 | 0.00 | 0.00 | 0.00 | 46 | 1007.2 |
| 20260504181537 | 49 | 292 | 15.0 | 24.0 | 0.00 | 0.00 | 0.00 | 50 | 1005.1 |
| 20260504181526 | 49 | 294 | 15.0 | 24.0 | 0.00 | 0.00 | 0.00 | 48 | 1007.1 |
| 20260504181009 | 49 | 288 | 17.0 | 24.0 | 0.00 | 0.00 | 0.00 | 49 | 1007.1 |
| 20260504180511 | 49 | 320 | 15.0 | 26.0 | 0.00 | 0.00 | 0.00 | 49 | 1007.1 |
| 20260504180043 | 49 | 299 | 16.0 | 26.0 | 0.00 | 0.00 | 0.00 | 51 | 1004.9 |
| 20260504180034 | 49 | 318 | 16.0 | 26.0 | 0.00 | 0.00 | 0.00 | 50 | 1007.0 |
| 20260504175510 | 49 | 340 | 15.0 | 28.0 | 0.00 | 0.00 | 0.00 | 52 | 1007.0 |
| 20260504175008 | 49 | 306 | 18.0 | 28.0 | 0.00 | 0.00 | 0.00 | 49 | 1006.9 |
| 20260504174531 | 49 | 327 | 12.0 | 24.0 | 0.00 | 0.00 | 0.00 | 48 | 1004.7 |
| 20260504174518 | 50 | 328 | 13.0 | 26.0 | 0.00 | 0.00 | 0.00 | 48 | 1006.8 |
| 20260504174007 | 50 | 321 | 19.0 | 27.0 | 0.00 | 0.00 | 0.00 | 47 | 1006.7 |
| 20260504173507 | 49 | 317 | 13.0 | 27.0 | 0.00 | 0.00 | 0.00 | 47 | 1006.7 |
| 20260504173031 | 50 | 303 | 12.0 | 25.0 | 0.00 | 0.00 | 0.00 | 49 | 1004.5 |
| 20260504173023 | 50 | 346 | 12.0 | 25.0 | 0.00 | 0.00 | 0.00 | 47 | 1006.6 |
| 20260504172506 | 50 | 308 | 14.0 | 26.0 | 0.00 | 0.00 | 0.00 | 48 | 1006.7 |
| 20260504172012 | 49 | 14 | 17.0 | 26.0 | 0.00 | 0.00 | 0.00 | 48 | 1006.6 |
| 20260504171530 | 49 | 273 | 14.0 | 26.0 | 0.00 | 0.00 | 0.00 | 48 | 1004.5 |
| 20260504171526 | 49 | 304 | 16.0 | 26.0 | 0.00 | 0.00 | 0.00 | 48 | 1006.7 |
| 20260504171011 | 50 | 310 | 12.0 | 28.0 | 0.00 | 0.00 | 0.00 | 48 | 1006.7 |
| 20260504170504 | 49 | 307 | 14.0 | 28.0 | 0.00 | 0.00 | 0.00 | 47 | 1006.5 |
| 20260504151007 | 48 | 16 | 12.0 | 19.0 | 0.00 | 0.00 | 0.00 | 58 | 1005.4 |
| 20260504150514 | 48 | 330 | 13.0 | 19.0 | 0.00 | 0.00 | 0.00 | 57 | 1005.4 |
| 20260504141010 | 50 | 11 | 10.0 | 18.0 | 0.00 | 0.00 | 0.00 | 56 | 1004.5 |
| 20260504140509 | 50 | 311 | 7.0 | 18.0 | 0.00 | 0.00 | 0.00 | 57 | 1004.6 |
| 20260504130510 | 49 | 315 | 8.0 | 13.0 | 0.00 | 0.00 | 0.00 | 67 | 1003.3 |
| 20260504110504 | 46 | 269 | 0.0 | 2.0 | 0.00 | 0.00 | 0.00 | 74 | 1001.7 |
| 20260504100503 | 47 | 328 | 2.0 | 3.0 | 0.00 | 0.00 | 0.00 | 70 | 1000.9 |
| 20260504082006 | 53 | 37 | 10.0 | 20.0 | 0.00 | 0.00 | 0.00 | 59 | 1000.7 |
| 20260504081518 | 54 | 323 | 10.0 | 16.0 | 0.00 | 0.00 | 0.00 | 58 | 1000.7 |
| 20260504081505 | 54 | 314 | 10.0 | 16.0 | 0.00 | 0.00 | 0.00 | 59 | 998.4 |
| 20260504081010 | 55 | 16 | 8.0 | 20.0 | 0.00 | 0.00 | 0.00 | 58 | 1000.5 |
| 20260504080507 | 56 | 347 | 11.0 | 24.0 | 0.00 | 0.00 | 0.00 | 57 | 1000.5 |
| 20260504050504 | 54 | 214 | 9.0 | 13.0 | 0.00 | 0.00 | 0.00 | 51 | 1000.1 |
| 20260504050020 | 54 | 213 | 10.0 | 13.0 | 0.00 | 0.00 | 0.00 | 51 | 1000.1 |
| 20260504045506 | 54 | 212 | 10.0 | 13.0 | 0.00 | 0.00 | 0.00 | 50 | 1000.1 |
| 20260504045007 | 54 | 216 | 10.0 | 13.0 | 0.00 | 0.00 | 0.00 | 50 | 1000.1 |
| 20260504044535 | 54 | 216 | 8.0 | 11.0 | 0.00 | 0.00 | 0.00 | 50 | 998.0 |
| 20260504044525 | 54 | 217 | 8.0 | 11.0 | 0.00 | 0.00 | 0.00 | 50 | 1000.2 |
| 20260504044006 | 54 | 212 | 8.0 | 12.0 | 0.00 | 0.00 | 0.00 | 49 | 1000.2 |
| 20260504043503 | 54 | 217 | 8.0 | 12.0 | 0.00 | 0.00 | 0.00 | 49 | 1000.3 |
| 20260504043038 | 54 | 214 | 8.0 | 11.0 | 0.00 | 0.00 | 0.00 | 49 | 998.2 |
| 20260504043009 | 54 | 215 | 8.0 | 12.0 | 0.00 | 0.00 | 0.00 | 48 | 1000.4 |
| 20260504042504 | 55 | 227 | 8.0 | 12.0 | 0.00 | 0.00 | 0.00 | 48 | 1000.5 |
| 20260504042004 | 55 | 212 | 9.0 | 13.0 | 0.00 | 0.00 | 0.00 | 47 | 1000.6 |
| 20260504041524 | 55 | 205 | 8.0 | 13.0 | 0.00 | 0.00 | 0.00 | 47 | 998.5 |
| 20260504041512 | 55 | 214 | 9.0 | 13.0 | 0.00 | 0.00 | 0.00 | 47 | 1000.7 |
| 20260504041004 | 55 | 221 | 8.0 | 12.0 | 0.00 | 0.00 | 0.00 | 47 | 1000.7 |
| 20260504040505 | 55 | 212 | 8.0 | 12.0 | 0.00 | 0.00 | 0.00 | 46 | 1000.8 |
| 20260504040023 | 55 | 224 | 8.0 | 12.0 | 0.00 | 0.00 | 0.00 | 46 | 998.8 |
| 20260504040017 | 55 | 204 | 9.0 | 12.0 | 0.00 | 0.00 | 0.00 | 46 | 1001.0 |
| 20260504035505 | 55 | 217 | 8.0 | 11.0 | 0.00 | 0.00 | 0.00 | 46 | 1001.1 |
| 20260504035007 | 55 | 212 | 7.0 | 10.0 | 0.00 | 0.00 | 0.00 | 45 | 1001.2 |
| 20260504034520 | 55 | 203 | 7.0 | 11.0 | 0.00 | 0.00 | 0.00 | 45 | 1001.2 |
| 20260504034006 | 56 | 214 | 8.0 | 11.0 | 0.00 | 0.00 | 0.00 | 44 | 1001.3 |
| 20260504033506 | 55 | 213 | 9.0 | 11.0 | 0.00 | 0.00 | 0.00 | 44 | 1001.4 |
| 20260504033022 | 55 | 214 | 8.0 | 10.0 | 0.00 | 0.00 | 0.00 | 44 | 1001.5 |
| 20260504033017 | 55 | 207 | 8.0 | 10.0 | 0.00 | 0.00 | 0.00 | 44 | 999.3 |
| 20260504032507 | 55 | 214 | 7.0 | 10.0 | 0.00 | 0.00 | 0.00 | 44 | 1001.6 |
| 20260504032003 | 56 | 216 | 7.0 | 10.0 | 0.00 | 0.00 | 0.00 | 44 | 1001.7 |
| 20260504031518 | 56 | 193 | 7.0 | 10.0 | 0.00 | 0.00 | 0.00 | 44 | 999.5 |
| 20260504031508 | 56 | 207 | 8.0 | 10.0 | 0.00 | 0.00 | 0.00 | 44 | 1001.7 |
| 20260504031003 | 56 | 200 | 7.0 | 10.0 | 0.00 | 0.00 | 0.00 | 43 | 1001.8 |
| 20260504030505 | 56 | 183 | 8.0 | 11.0 | 0.00 | 0.00 | 0.00 | 42 | 1001.9 |
| 20260504030014 | 56 | 194 | 7.0 | 11.0 | 0.00 | 0.00 | 0.00 | 41 | 999.7 |
| 20260504025505 | 57 | 213 | 9.0 | 11.0 | 0.00 | 0.00 | 0.00 | 40 | 1001.9 |
| 20260504025003 | 57 | 209 | 8.0 | 10.0 | 0.00 | 0.00 | 0.00 | 40 | 1001.9 |
| 20260504024519 | 57 | 205 | 8.0 | 10.0 | 0.00 | 0.00 | 0.00 | 40 | 1002.1 |
| 20260504024512 | 57 | 215 | 7.0 | 10.0 | 0.00 | 0.00 | 0.00 | 41 | 999.8 |
| 20260504024006 | 57 | 196 | 8.0 | 10.0 | 0.00 | 0.00 | 0.00 | 40 | 1002.1 |
| 20260504023506 | 57 | 204 | 7.0 | 11.0 | 0.00 | 0.00 | 0.00 | 40 | 1002.1 |
| 20260504023025 | 57 | 217 | 7.0 | 11.0 | 0.00 | 0.00 | 0.00 | 39 | 1002.3 |